Date String (YYYY-MM-DD hh:mm:ss) UTC,Instrument flags,absolute air pressure of the measurement (hPa),sample flow rate (lpm),inlet stack bypass flow (lpm),air temperature of the measurement (°C),ambient temperature measured by the external sensor (°C),aerosol sample conditioner tube jacket temperature (°C),OPC LED temperature (°C),internal box temperature (°C),relative humidity of the measurement (%),span deviation,mass concentration of particles derived from Lorenz-Mie calculation of OPC scattering (μg/m³),mass concentration of particles derived from Lorenz-Mie calculation of OPC scattering (μg/m³),mass concentration of particles derived from Lorenz-Mie calculation of OPC scattering (μg/m³)
DateTimeUTC,F1_M11,P_M11,Q1_M11,Q2_M11,T1_M11,T2_M11,T3_M11,T4_M11,T5_M11,U1_M11,ZSPAN_M11,X0_M11,X2_M11,X1_M11
2023-08-21 08:00:00,SystemResetWarning,0834.0,5.01,000.00,028.2,024.7,000.0,036.6,029.5,17.3,0002.6,0013.47,0005.28,0004.30
2023-08-21 08:01:00,SystemResetWarning,0834.0,5.00,000.00,028.1,025.1,000.0,036.6,029.6,17.2,0002.6,0013.26,0005.17,0004.20
2023-08-21 08:02:00,SystemResetWarning,0834.1,5.00,000.00,028.1,025.5,000.0,036.7,029.7,17.0,0001.8,0013.26,0005.07,0004.10
2023-08-21 08:03:00,SystemResetWarning,0834.1,4.99,000.00,028.2,025.8,000.0,036.7,029.8,16.8,0001.4,0013.54,0004.94,0004.01
2023-08-21 08:04:00,SystemResetWarning,0834.1,5.00,000.00,028.2,026.1,000.0,036.7,029.8,16.7,0001.0,0013.27,0004.83,0003.92
2023-08-21 08:05:00,SystemResetWarning,0834.1,5.00,000.00,028.2,026.4,000.0,036.7,029.9,16.6,0000.7,0013.12,0004.76,0003.86
2023-08-21 08:06:00,SystemResetWarning,0834.1,5.00,000.00,028.2,026.6,000.0,036.7,029.9,16.8,0000.9,0013.30,0004.72,0003.79
2023-08-21 08:07:00,SystemResetWarning,0834.1,5.00,000.00,028.3,026.8,000.0,036.7,030.0,17.7,0000.3,0013.15,0004.68,0003.73
2023-08-21 08:08:00,SystemResetWarning,0834.1,5.01,000.00,028.3,027.0,000.0,036.7,030.0,17.8,0000.4,0013.13,0004.60,0003.68
2023-08-21 08:09:00,SystemResetWarning,0834.1,5.00,000.00,028.3,027.1,000.0,036.8,030.1,17.9,0000.1,0013.03,0004.55,0003.62
2023-08-21 08:10:00,SystemResetWarning,0834.1,5.00,000.00,028.4,027.2,000.0,036.8,030.1,17.9,-000.9,0011.87,0004.46,0003.56
2023-08-21 08:11:00,SystemResetWarning,0834.1,5.00,000.00,028.4,027.3,000.0,036.8,030.1,18.0,-001.1,0012.21,0004.35,0003.52
2023-08-21 08:12:00,SystemResetWarning,0834.2,4.99,000.00,028.4,027.3,000.0,036.8,030.2,18.1,-001.3,0012.59,0004.29,0003.50
2023-08-21 08:13:00,SystemResetWarning,0834.1,4.99,000.00,028.5,026.8,000.0,036.8,030.2,18.0,-000.5,0012.38,0004.24,0003.45
2023-08-21 08:14:00,SystemResetWarning,0834.1,5.01,000.00,028.4,025.0,000.0,036.7,029.9,18.0,0000.1,0012.02,0004.22,0003.43
2023-08-21 08:15:00,SystemResetWarning,0834.1,5.00,000.00,028.3,024.4,000.0,036.6,029.6,17.8,0000.4,0011.43,0004.22,0003.40
2023-08-21 08:16:00,SystemResetWarning,0834.1,5.01,000.00,028.2,024.5,000.0,036.6,029.4,17.9,0000.9,0010.91,0004.21,0003.39
2023-08-21 08:17:00,SystemResetWarning,0834.1,5.00,000.00,028.2,024.8,000.0,036.7,029.5,17.9,0001.1,0010.82,0004.19,0003.39
2023-08-21 08:18:00,SystemResetWarning,0834.1,4.99,000.00,028.2,025.2,000.0,036.7,029.6,17.9,0001.1,0010.35,0004.17,0003.39
2023-08-21 08:19:00,SystemResetWarning,0834.1,5.00,000.00,028.2,025.6,000.0,036.7,029.7,17.7,0000.6,0010.31,0004.19,0003.40
2023-08-21 08:20:00,SystemResetWarning,0834.1,5.00,000.00,028.2,025.9,000.0,036.7,029.8,17.6,0000.8,0010.15,0004.18,0003.42
2023-08-21 08:21:00,SystemResetWarning,0834.1,5.01,000.00,028.2,026.2,000.0,036.7,029.8,17.7,0001.3,0010.43,0004.22,0003.46
2023-08-21 08:22:00,SystemResetWarning,0834.1,4.99,000.00,028.2,026.5,000.0,036.7,029.9,17.6,0002.0,0009.95,0004.26,0003.52
2023-08-21 08:23:00,SystemResetWarning,0834.1,5.00,000.00,028.3,026.7,000.0,036.7,030.0,17.6,0001.6,0009.32,0004.30,0003.55
2023-08-21 08:24:00,SystemResetWarning,0834.1,4.99,000.00,028.3,026.8,000.0,036.8,030.0,17.6,0001.4,0009.25,0004.34,0003.59
2023-08-21 08:25:00,SystemResetWarning,0834.1,5.00,000.00,028.3,027.0,000.0,036.8,030.1,17.7,0001.6,0009.47,0004.37,0003.62
2023-08-21 08:26:00,SystemResetWarning,0834.1,5.01,000.00,028.4,027.1,000.0,036.8,030.1,17.6,0001.7,0009.26,0004.38,0003.65
2023-08-21 08:27:00,SystemResetWarning,0834.1,5.00,000.00,028.4,027.2,000.0,036.8,030.1,17.1,0001.8,0009.19,0004.43,0003.70
2023-08-21 08:28:00,SystemResetWarning,0834.1,5.00,000.00,028.4,027.3,000.0,036.8,030.2,17.2,0001.5,0009.03,0004.46,0003.74
2023-08-21 08:29:00,SystemResetWarning,0834.2,5.00,000.00,028.5,027.4,000.0,036.9,030.2,17.0,0001.5,0009.09,0004.51,0003.76
2023-08-21 08:30:00,SystemResetWarning,0834.2,4.99,000.00,028.5,027.0,000.0,036.8,030.2,17.1,0002.0,0009.21,0004.54,0003.79
2023-08-21 08:31:00,SystemResetWarning,0834.1,5.00,000.00,028.5,025.1,000.0,036.7,029.9,17.0,0002.3,0009.52,0004.58,0003.80
2023-08-21 08:32:00,SystemResetWarning,0834.1,5.00,000.00,028.4,024.4,000.0,036.7,029.7,16.9,0003.0,0009.59,0004.56,0003.79
2023-08-21 08:33:00,SystemResetWarning,0834.1,5.00,000.00,028.2,024.4,000.0,036.7,029.5,16.8,0002.9,0009.60,0004.53,0003.76
2023-08-21 08:34:00,SystemResetWarning,0834.1,5.01,000.00,028.2,024.8,000.0,036.7,029.5,16.7,0003.3,0009.85,0004.54,0003.74
2023-08-21 08:35:00,SystemResetWarning,0834.1,5.01,000.00,028.2,025.2,000.0,036.7,029.6,17.2,0003.2,0009.95,0004.55,0003.73
2023-08-21 08:36:00,SystemResetWarning,0834.1,5.00,000.00,028.2,025.6,000.0,036.7,029.7,16.7,0003.2,0009.93,0004.55,0003.74
2023-08-21 08:37:00,SystemResetWarning,0834.1,5.00,000.00,028.2,025.9,000.0,036.7,029.8,16.9,0003.3,0009.96,0004.55,0003.77
2023-08-21 08:38:00,SystemResetWarning,0834.1,5.00,000.00,028.2,026.2,000.0,036.7,029.8,17.4,0003.1,0010.39,0004.60,0003.81
2023-08-21 08:39:00,SystemResetWarning,0834.1,5.00,000.00,028.2,026.4,000.0,036.7,029.9,17.6,0003.3,0010.77,0004.66,0003.83
2023-08-21 08:40:00,SystemResetWarning,0834.2,5.00,000.00,028.3,026.6,000.0,036.8,030.0,17.5,0003.2,0010.89,0004.71,0003.90
2023-08-21 08:41:00,SystemResetWarning,0834.2,5.00,000.00,028.3,026.8,000.0,036.8,030.0,17.2,0003.1,0010.83,0004.75,0003.96
2023-08-21 08:42:00,SystemResetWarning,0834.2,5.00,000.00,028.3,026.9,000.0,036.8,030.0,17.2,0003.1,0010.90,0004.84,0004.04
2023-08-21 08:43:00,SystemResetWarning,0834.3,4.99,000.00,028.4,027.1,000.0,036.8,030.1,17.1,0003.0,0010.73,0004.94,0004.13
2023-08-21 08:44:00,SystemResetWarning,0834.2,5.00,000.00,028.4,027.2,000.0,036.8,030.1,17.1,0002.8,0011.47,0004.96,0004.16
2023-08-21 08:45:00,SystemResetWarning,0834.3,5.00,000.00,028.4,027.3,000.0,036.8,030.2,17.2,0002.4,0011.55,0004.97,0004.18
2023-08-21 08:46:00,SystemResetWarning,0834.3,5.00,000.00,028.5,027.3,000.0,036.9,030.2,16.9,0002.3,0011.87,0005.00,0004.21
2023-08-21 08:47:00,SystemResetWarning,0834.4,5.00,000.00,028.5,027.4,000.0,036.9,030.2,16.8,0002.4,0011.69,0005.02,0004.24
2023-08-21 08:48:00,SystemResetWarning,0834.4,4.98,000.00,028.5,026.2,000.0,036.8,030.1,16.8,0002.2,0011.87,0005.09,0004.25
2023-08-21 08:49:00,SystemResetWarning,0834.2,5.00,000.00,028.4,024.6,000.0,036.7,029.8,16.8,0002.4,0011.90,0005.13,0004.23
2023-08-21 08:50:00,SystemResetWarning,0834.2,5.01,000.00,028.4,024.3,000.0,036.7,029.6,17.0,0002.5,0011.76,0005.16,0004.23
2023-08-21 08:51:00,SystemResetWarning,0834.2,5.01,000.00,028.3,024.6,000.0,036.7,029.6,17.2,0002.8,0011.68,0005.12,0004.20
2023-08-21 08:52:00,SystemResetWarning,0834.2,5.00,000.00,028.2,024.9,000.0,036.7,029.6,18.4,0002.9,0011.50,0005.10,0004.17
2023-08-21 08:53:00,SystemResetWarning,0834.3,5.00,000.00,028.2,025.3,000.0,036.7,029.7,18.9,0003.0,0011.56,0005.03,0004.11
2023-08-21 08:54:00,SystemResetWarning,0834.3,5.01,000.00,028.2,025.7,000.0,036.7,029.8,19.5,0002.8,0011.26,0004.92,0004.01
2023-08-21 08:55:00,SystemResetWarning,0834.4,5.00,000.00,028.2,026.0,000.0,036.7,029.8,20.0,0002.6,0010.74,0004.86,0003.96
2023-08-21 08:56:00,SystemResetWarning,0834.6,5.00,000.00,028.2,026.3,000.0,036.7,029.9,19.8,0002.7,0010.57,0004.83,0003.94
2023-08-21 08:57:00,SystemResetWarning,0834.3,5.00,000.00,028.2,026.5,000.0,036.8,029.9,19.8,0003.1,0010.77,0004.77,0003.90
2023-08-21 08:58:00,SystemResetWarning,0834.3,5.00,000.00,028.3,026.7,000.0,036.8,029.9,20.1,0003.3,0011.16,0004.70,0003.85
2023-08-21 08:59:00,SystemResetWarning,0834.4,5.00,000.00,028.3,026.8,000.0,036.8,030.0,20.1,0003.4,0011.59,0004.64,0003.80
